DECAYED

DMSP 5D-2 F11 DEB, 29088 (Decayed)

Orbit data source: Space-Track

DMSP 5D-2 F11 DEB, 29088 was space debris in SSO originally from a launch on Thu, 28 Nov 1991 UTC launched from the Air Force Western Test Range (AFWTR). Debris objects in space refer to the collection of defunct objects orbiting the Earth. Examples of debris include non-operational satellites, rocket bodies, and fragments generated from explosions, collisions, or faulty payload assembly.

Not visible in the next 10 days
Identifier
29088, 1991-082CH
Orbit
Decayed
Country
Flag of USUS
Related business
Manufacturer
Unknown
Mission
Decayed spacecraft
Bus & Motor
Unknown
Mass
Unknown
Launch date (UTC)
1991-11-28 (35 years ago)
Launch vehicle
Unknown
Launch site
Air Force Western Test Range (AFWTR)
Object type
Payload
Rocket body
Debris
Shape & HBR
Unknown shape, 0.1 m
Radar Cross Section
Medium (>0.1 m² and <1 m²)

Expand to show TLE details & history
Last TLE update: 1 year ago

TLE from 1 year ago
0 DMSP 5D-2 F11 DEB
1 29088U 91082CH  25262.57946494  .01511482  00000-0  13072-1 0  9998
2 29088  98.5012  27.1543 0019746 295.8312  64.0907 15.66200320644592
Epoch: 2025-09-19T13:54Z
TLE epoch observation values (Epoch: 2025-09-19T13:54:25.770Z)
Latitude
-0.00013°
Longitude
179.82226°
Altitude
367.105 km
Speed
7.692 km/s
True Right ascension
01h 48m 37s
True Declination
0° 00' 00"
Sunlit
Object was in full shadow at epoch
Visualization orbit readout
Latitude
Unknown
Longitude
Unknown
Altitude
Unknown
Speed
Unknown
Apparent Right ascension
Unknown
Apparent Declination
Unknown
Sunlit
N/A
Visualization observer readout
Local Sidereal Time
04:57:36
Azimuth
Unknown
Elevation
Unknown
Doppler factor
Unknown
Orbital elements
Apogee altitude
380.063 km
Perigee altitude
353.426 km
Semi-major axis
6,744.882 km
Eccentricity
0.00197
Inclination
98.5012°
RAAN
27.1543°
Arg. of periapsis
295.8312°
True anomaly
64.29445°
Mean anomaly
64.0907°
Eccentric anomaly
64.19255°
Mean motion
3.91816 °/min
Orbital period
91.88 mins
BSTAR
0.013072
Loading maneuver chart data...
Computing Atmospheric mass density...

Documentation

Showing up to 5 results
|